,,PA_Meas_PMT16A,,PR_Meas_QMR101_102,,RH_Meas_QMH101,,SR_Meas_QMS101,,TA_Meas_QMH101,,GenWind,,GenWind,
time,status,PA,status,PR,status,RH,status,SR,status,TA,status,DirAvg,status,SpdAvg,
2016-02-03, 07:51:04,VALID,917.709,VALID,0,VALID,100.088,VALID,122.805,VALID,20.2894,VALID,127,VALID,1.07383,
2016-02-03, 07:52:04,VALID,917.696,VALID,0,VALID,99.1806,VALID,124.847,VALID,20.2699,VALID,163,VALID,0.545703,
2016-02-03, 07:55:04,VALID,917.776,VALID,0,VALID,99.943,VALID,121.946,VALID,20.3074,VALID,112,VALID,0.970703,
2016-02-03, 07:56:04,VALID,917.781,VALID,0,VALID,100.164,VALID,130.863,VALID,20.3269,VALID,125,VALID,1.8543,
2016-02-03, 07:57:04,VALID,917.775,VALID,0,VALID,99.0892,VALID,143.434,VALID,20.3074,VALID,169,VALID,1.39531,
2016-02-03, 07:58:04,VALID,917.807,VALID,0,VALID,98.2811,VALID,159.55,VALID,20.3074,VALID,104,VALID,1.70078,
2016-02-03, 07:59:04,VALID,917.812,VALID,0,VALID,97.4044,VALID,166.749,VALID,20.3058,VALID,127,VALID,1.52969,
2016-02-03, 08:00:04,VALID,917.842,VALID,0,VALID,99.2569,VALID,184.799,VALID,20.4049,VALID,137,VALID,0.382031,
2016-02-03, 08:01:04,VALID,917.843,VALID,0,VALID,98.5784,VALID,184.262,VALID,20.5024,VALID,139,VALID,0.885938,
2016-02-03, 08:02:04,VALID,917.89,VALID,0,VALID,96.5658,VALID,168.36,VALID,20.5999,VALID,167,VALID,1.41523,
2016-02-03, 08:03:04,VALID,917.899,VALID,0,VALID,96.6268,VALID,165.352,VALID,20.6569,VALID,145,VALID,0.603906,
2016-02-03, 08:04:04,VALID,917.922,VALID,0,VALID,97.3739,VALID,182.543,VALID,20.7755,VALID,143,VALID,0,
2016-02-03, 08:05:04,VALID,917.932,VALID,0,VALID,93.9357,VALID,186.303,VALID,20.834,VALID,169,VALID,1.05781,
2016-02-03, 08:06:04,VALID,917.924,VALID,0,VALID,91.4581,VALID,180.071,VALID,20.8925,VALID,53,VALID,1.26953,
2016-02-03, 08:07:04,VALID,917.939,VALID,0,VALID,90.6882,VALID,181.361,VALID,20.9511,VALID,96,VALID,1.0043,
2016-02-03, 08:08:04,VALID,917.972,VALID,0,VALID,90.246,VALID,176.096,VALID,20.9706,VALID,96,VALID,1.53945,
2016-02-03, 08:09:04,VALID,917.987,VALID,0,VALID,87.8904,VALID,183.509,VALID,21.0291,VALID,129,VALID,1.57539,
2016-02-03, 08:10:04,VALID,918.018,VALID,0,VALID,88.1343,VALID,201.13,VALID,21.0486,VALID,125,VALID,1.52852,
2016-02-03, 08:11:04,VALID,918.061,VALID,0,VALID,87.6159,VALID,227.345,VALID,21.1071,VALID,106,VALID,1.27227,
2016-02-03, 08:12:04,VALID,918.089,VALID,0,VALID,87.7913,VALID,215.634,VALID,21.1852,VALID,134,VALID,1.31211,
2016-02-03, 08:13:04,VALID,918.092,VALID,0,VALID,88.0047,VALID,230.569,VALID,21.3022,VALID,99,VALID,1.34648,
2016-02-03, 08:14:04,VALID,918.097,VALID,0,VALID,85.0316,VALID,215.205,VALID,21.4193,VALID,56,VALID,2.10469,
2016-02-03, 08:15:04,VALID,918.106,VALID,0,VALID,84.2692,VALID,202.741,VALID,21.5363,VALID,30,VALID,1.69844,
2016-02-03, 08:16:04,VALID,918.154,VALID,0,VALID,83.4688,VALID,206.609,VALID,21.5932,VALID,57,VALID,1.83047,
2016-02-03, 08:17:04,VALID,918.122,VALID,0,VALID,82.1499,VALID,226.593,VALID,21.6518,VALID,74,VALID,2.85039,
2016-02-03, 08:18:04,VALID,918.199,VALID,0,VALID,82.9123,VALID,225.841,VALID,21.7315,VALID,63,VALID,1.4918,
2016-02-03, 08:19:04,VALID,918.15,VALID,0,VALID,82.8284,VALID,234.114,VALID,21.7705,VALID,57,VALID,0.245703,
2016-02-03, 08:20:04,VALID,918.24,VALID,0,VALID,82.7141,VALID,241.098,VALID,21.8274,VALID,111,VALID,0.407813,
2016-02-03, 08:21:04,VALID,918.224,VALID,0,VALID,81.8221,VALID,233.685,VALID,21.9054,VALID,71,VALID,0.621484,
2016-02-03, 08:22:04,VALID,918.256,VALID,0,VALID,81.197,VALID,222.833,VALID,22.0225,VALID,54,VALID,1.00156,
2016-02-03, 08:23:04,VALID,918.247,VALID,0,VALID,80.7015,VALID,226.056,VALID,22.081,VALID,95,VALID,1.0332,
2016-02-03, 08:24:04,VALID,918.281,VALID,0,VALID,81.8907,VALID,202.741,VALID,22.1591,VALID,43,VALID,0.0242187,
2016-02-03, 08:25:04,VALID,918.313,VALID,0,VALID,80.7701,VALID,200.055,VALID,22.1803,VALID,77,VALID,1.10391,
2016-02-03, 08:26:04,VALID,918.325,VALID,0,VALID,80.0078,VALID,203.386,VALID,22.1981,VALID,50,VALID,1.48359,
2016-02-03, 08:27:04,VALID,918.33,VALID,0,VALID,79.9086,VALID,206.717,VALID,22.1396,VALID,70,VALID,1.54648,
2016-02-03, 08:28:04,VALID,918.369,VALID,0,VALID,80.8921,VALID,192.964,VALID,22.1396,VALID,40,VALID,1.23242,
2016-02-03, 08:29:04,VALID,918.342,VALID,0,VALID,79.1997,VALID,194.683,VALID,22.1379,VALID,61,VALID,1.88047,
2016-02-03, 08:30:04,VALID,918.403,VALID,0,VALID,81.0522,VALID,187.27,VALID,22.1396,VALID,46,VALID,1.51602,
2016-02-03, 08:31:04,VALID,918.376,VALID,0,VALID,80.8768,VALID,160.839,VALID,22.081,VALID,50,VALID,2.32656,
2016-02-03, 08:32:04,VALID,918.435,VALID,0,VALID,81.4791,VALID,161.054,VALID,22.042,VALID,85,VALID,1.71523,
2016-02-03, 08:33:04,VALID,918.413,VALID,0,VALID,80.1297,VALID,180.179,VALID,22.003,VALID,64,VALID,1.01172,
2016-02-03, 08:34:04,VALID,918.431,VALID,0,VALID,79.8629,VALID,173.84,VALID,22.0225,VALID,88,VALID,1.63984,
2016-02-03, 08:35:04,VALID,918.438,VALID,0,VALID,80.61,VALID,179.104,VALID,22.042,VALID,90,VALID,0.0121094,
2016-02-03, 08:36:04,VALID,918.46,VALID,0,VALID,79.8095,VALID,202.527,VALID,22.0225,VALID,101,VALID,2.10117,
2016-02-03, 08:37:04,VALID,918.49,VALID,0,VALID,80.9759,VALID,224.659,VALID,22.0225,VALID,97,VALID,1.2043,
2016-02-03, 08:38:04,VALID,918.418,VALID,0,VALID,80.8921,VALID,249.263,VALID,22.0208,VALID,92,VALID,2.11328,
2016-02-03, 08:39:04,VALID,918.474,VALID,0,VALID,80.8616,VALID,256.247,VALID,22.0794,VALID,82,VALID,1.4207,
2016-02-03, 08:40:04,VALID,918.481,VALID,0,VALID,80.8768,VALID,213.7,VALID,22.1396,VALID,96,VALID,1.63437,
2016-02-03, 08:41:04,VALID,918.481,VALID,0,VALID,81.7916,VALID,175.451,VALID,22.1998,VALID,92,VALID,1.00352,
2016-02-03, 08:42:04,VALID,918.478,VALID,0,VALID,80.4575,VALID,158.046,VALID,22.1786,VALID,91,VALID,1.97578,
2016-02-03, 08:43:04,VALID,918.507,VALID,0,VALID,81.5705,VALID,163.525,VALID,22.1981,VALID,70,VALID,1.53359,
2016-02-03, 08:44:04,VALID,918.528,VALID,0,VALID,79.6647,VALID,269.677,VALID,22.1591,VALID,101,VALID,1.94023,
2016-02-03, 08:45:04,VALID,918.549,VALID,0,VALID,80.4423,VALID,239.486,VALID,22.1786,VALID,139,VALID,1.14297,
2016-02-03, 08:46:04,VALID,918.569,VALID,0,VALID,79.5656,VALID,188.882,VALID,22.2567,VALID,75,VALID,0.995703,
2016-02-03, 08:47:04,VALID,918.579,VALID,0,VALID,80.7625,VALID,184.691,VALID,22.2957,VALID,92,VALID,1.45508,
2016-02-03, 08:48:04,VALID,918.569,VALID,0,VALID,79.8629,VALID,183.724,VALID,22.3152,VALID,108,VALID,1.14805,
2016-02-03, 08:49:04,VALID,918.586,VALID,0,VALID,79.5961,VALID,166.104,VALID,22.3152,VALID,107,VALID,0.988672,
2016-02-03, 08:50:04,VALID,918.606,VALID,0,VALID,79.3521,VALID,157.831,VALID,22.2957,VALID,104,VALID,1.83945,
2016-02-03, 08:51:04,VALID,918.588,VALID,0,VALID,79.2454,VALID,157.186,VALID,22.2957,VALID,77,VALID,0.968359,
2016-02-03, 08:52:04,VALID,918.602,VALID,0,VALID,80.5795,VALID,153.641,VALID,22.2957,VALID,75,VALID,0.308594,
2016-02-03, 08:53:04,VALID,918.637,VALID,0,VALID,79.1158,VALID,157.401,VALID,22.2567,VALID,91,VALID,2.175,
2016-02-03, 08:54:04,VALID,918.62,VALID,0,VALID,79.6266,VALID,187.915,VALID,22.1981,VALID,133,VALID,2.01875,
2016-02-03, 08:55:04,VALID,918.626,VALID,0,VALID,80.427,VALID,204.246,VALID,22.1379,VALID,109,VALID,1.8418,
2016-02-03, 08:56:04,VALID,918.664,VALID,0,VALID,80.7167,VALID,198.551,VALID,22.1396,VALID,141,VALID,0.364062,
2016-02-03, 08:57:04,VALID,918.643,VALID,0,VALID,81.1665,VALID,190.923,VALID,22.1786,VALID,128,VALID,0,
2016-02-03, 08:58:04,VALID,918.666,VALID,0,VALID,79.2302,VALID,340.911,VALID,22.1574,VALID,123,VALID,0.0449219,
2016-02-03, 08:59:04,VALID,918.684,VALID,0,VALID,79.6799,VALID,214.775,VALID,22.2176,VALID,114,VALID,0.0980469,
2016-02-03, 09:00:04,VALID,918.707,VALID,0,VALID,81.8145,VALID,186.196,VALID,22.2762,VALID,69,VALID,0.255859,
2016-02-03, 09:01:04,VALID,918.738,VALID,0,VALID,78.5288,VALID,182.865,VALID,22.255,VALID,129,VALID,1.30391,
2016-02-03, 09:02:04,VALID,918.715,VALID,0,VALID,79.0777,VALID,188.022,VALID,22.294,VALID,125,VALID,0.288281,
2016-02-03, 09:03:04,VALID,918.746,VALID,0,VALID,79.4207,VALID,179.104,VALID,22.2745,VALID,125,VALID,0.933203,
2016-02-03, 09:04:04,VALID,918.714,VALID,0,VALID,80.0001,VALID,187.485,VALID,22.3152,VALID,112,VALID,0.0152344,
2016-02-03, 09:05:04,VALID,918.72,VALID,0,VALID,80.6634,VALID,185.873,VALID,22.3347,VALID,126,VALID,0.666016,
2016-02-03, 09:06:04,VALID,918.759,VALID,0,VALID,77.5987,VALID,181.253,VALID,22.3347,VALID,137,VALID,2.05312,
2016-02-03, 09:07:04,VALID,918.752,VALID,0,VALID,79.3674,VALID,217.783,VALID,22.3737,VALID,101,VALID,0,
2016-02-03, 09:08:04,VALID,918.741,VALID,0,VALID,80.9836,VALID,238.842,VALID,22.4306,VALID,101,VALID,0,
2016-02-03, 09:09:04,VALID,918.728,VALID,0,VALID,78.7575,VALID,242.387,VALID,22.5086,VALID,129,VALID,0,
2016-02-03, 09:10:04,VALID,918.721,VALID,0,VALID,77.3777,VALID,219.825,VALID,22.5672,VALID,79,VALID,0,
2016-02-03, 09:11:04,VALID,918.729,VALID,0,VALID,77.8732,VALID,250.983,VALID,22.6257,VALID,93,VALID,0,
2016-02-03, 09:12:04,VALID,918.745,VALID,0,VALID,77.4463,VALID,215.634,VALID,22.6647,VALID,115,VALID,0,
2016-02-03, 09:13:04,VALID,918.737,VALID,0,VALID,80.1374,VALID,253.346,VALID,22.7233,VALID,91,VALID,0,
2016-02-03, 09:14:04,VALID,918.743,VALID,0,VALID,77.5149,VALID,262.479,VALID,22.7818,VALID,87,VALID,0,
2016-02-03, 09:15:04,VALID,918.71,VALID,0,VALID,76.8593,VALID,516.362,VALID,22.8616,VALID,76,VALID,1.09727,
2016-02-03, 09:16:04,VALID,918.735,VALID,0,VALID,78.6432,VALID,438.252,VALID,22.977,VALID,87,VALID,0,
2016-02-03, 09:17:04,VALID,918.751,VALID,0,VALID,74.9153,VALID,225.519,VALID,23.0568,VALID,125,VALID,0.717188,
2016-02-03, 09:18:04,VALID,918.783,VALID,0,VALID,74.618,VALID,218.428,VALID,23.0551,VALID,109,VALID,0.03125,
2016-02-03, 09:19:04,VALID,918.758,VALID,0,VALID,76.4552,VALID,243.247,VALID,23.0356,VALID,70,VALID,0,
2016-02-03, 09:20:04,VALID,918.758,VALID,0,VALID,75.5404,VALID,248.189,VALID,23.1331,VALID,86,VALID,0,
2016-02-03, 09:21:04,VALID,918.735,VALID,0,VALID,74.7323,VALID,230.354,VALID,23.1527,VALID,125,VALID,0,
2016-02-03, 09:22:04,VALID,918.765,VALID,0,VALID,77.21,VALID,219.18,VALID,23.1527,VALID,95,VALID,0.185937,
2016-02-03, 09:23:04,VALID,918.738,VALID,0,VALID,74.8086,VALID,208.328,VALID,23.1331,VALID,98,VALID,0,
2016-02-03, 09:24:04,VALID,918.799,VALID,0,VALID,75.5099,VALID,198.659,VALID,23.0746,VALID,105,VALID,0,
2016-02-03, 09:25:04,VALID,918.782,VALID,0,VALID,75.7844,VALID,200.055,VALID,23.0338,VALID,111,VALID,0,
2016-02-03, 09:26:04,VALID,918.775,VALID,0,VALID,75.6929,VALID,193.931,VALID,22.9948,VALID,111,VALID,0,
2016-02-03, 09:27:04,VALID,918.774,VALID,0,VALID,77.9875,VALID,173.625,VALID,23.016,VALID,108,VALID,0.0195313,
2016-02-03, 09:28:04,VALID,918.785,VALID,0,VALID,75.9445,VALID,155.897,VALID,22.9965,VALID,90,VALID,0.101953,
2016-02-03, 09:29:04,VALID,918.754,VALID,0,VALID,77.5301,VALID,147.517,VALID,22.9753,VALID,46,VALID,1.13437,
2016-02-03, 09:30:04,VALID,918.776,VALID,0,VALID,75.1669,VALID,146.765,VALID,22.9362,VALID,53,VALID,0.0582031,
2016-02-03, 09:31:04,VALID,918.778,VALID,0,VALID,76.0131,VALID,155.038,VALID,22.9185,VALID,50,VALID,1.91055,
2016-02-03, 09:32:04,VALID,918.805,VALID,0,VALID,75.1364,VALID,172.443,VALID,22.8777,VALID,59,VALID,1.95781,
2016-02-03, 09:33:04,VALID,918.796,VALID,0,VALID,75.792,VALID,185.551,VALID,22.8599,VALID,76,VALID,2.05352,
2016-02-03, 09:34:04,VALID,918.786,VALID,0,VALID,76.501,VALID,195.328,VALID,22.8014,VALID,79,VALID,1.85078,
2016-02-03, 09:35:04,VALID,918.796,VALID,0,VALID,76.318,VALID,201.56,VALID,22.7801,VALID,75,VALID,0,
2016-02-03, 09:36:04,VALID,918.774,VALID,0,VALID,77.4692,VALID,201.13,VALID,22.7606,VALID,72,VALID,0.542188,
2016-02-03, 09:37:04,VALID,918.785,VALID,0,VALID,74.9839,VALID,198.229,VALID,22.7606,VALID,62,VALID,2.44336,
2016-02-03, 09:38:04,VALID,918.804,VALID,0,VALID,77.492,VALID,200.915,VALID,22.8014,VALID,61,VALID,1.63359,
2016-02-03, 09:39:04,VALID,918.802,VALID,0,VALID,74.4503,VALID,208.651,VALID,22.8014,VALID,83,VALID,1.09922,
2016-02-03, 09:40:04,VALID,918.787,VALID,0,VALID,74.7476,VALID,208.543,VALID,22.7996,VALID,52,VALID,1.45938,
2016-02-03, 09:41:04,VALID,918.805,VALID,0,VALID,75.4947,VALID,202.419,VALID,22.8404,VALID,71,VALID,1.60742,
2016-02-03, 09:42:04,VALID,918.801,VALID,0,VALID,76.7221,VALID,198.766,VALID,22.8599,VALID,68,VALID,0.558984,
2016-02-03, 09:43:04,VALID,918.822,VALID,0,VALID,76.5543,VALID,181.468,VALID,22.8387,VALID,85,VALID,1.58594,
2016-02-03, 09:44:04,VALID,918.839,VALID,0,VALID,77.0727,VALID,165.352,VALID,22.8387,VALID,64,VALID,0.639063,
2016-02-03, 09:45:04,VALID,918.857,VALID,0,VALID,76.1427,VALID,162.021,VALID,22.8191,VALID,87,VALID,0.226172,
2016-02-03, 09:46:04,VALID,918.831,VALID,0,VALID,76.5467,VALID,178.245,VALID,22.8191,VALID,74,VALID,0.639063,
2016-02-03, 09:47:04,VALID,918.844,VALID,0,VALID,76.6535,VALID,200.7,VALID,22.8209,VALID,67,VALID,0.785156,
2016-02-03, 09:48:04,VALID,918.822,VALID,0,VALID,76.0588,VALID,419.558,VALID,22.8191,VALID,79,VALID,0.358984,
2016-02-03, 09:49:04,VALID,918.777,VALID,0,VALID,75.5862,VALID,569.116,VALID,22.8387,VALID,88,VALID,0.720703,
2016-02-03, 09:50:04,VALID,918.748,VALID,0,VALID,76.2494,VALID,269.248,VALID,22.9167,VALID,74,VALID,0.0355469,
2016-02-03, 09:51:04,VALID,918.768,VALID,0,VALID,74.2216,VALID,269.785,VALID,22.9753,VALID,122,VALID,0.607031,
2016-02-03, 09:52:04,VALID,918.753,VALID,0,VALID,75.914,VALID,266.239,VALID,23.0924,VALID,58,VALID,0,
2016-02-03, 09:53:04,VALID,918.76,VALID,0,VALID,75.0678,VALID,278.917,VALID,23.1899,VALID,107,VALID,0.557422,
2016-02-03, 09:54:04,VALID,918.756,VALID,0,VALID,75.2126,VALID,289.446,VALID,23.2485,VALID,103,VALID,1.25039,
2016-02-03, 09:55:04,VALID,918.777,VALID,0,VALID,73.2763,VALID,296.86,VALID,23.268,VALID,129,VALID,0.978516,
2016-02-03, 09:56:04,VALID,918.775,VALID,0,VALID,74.1377,VALID,300.728,VALID,23.3461,VALID,92,VALID,1.46992,
2016-02-03, 09:57:04,VALID,918.773,VALID,0,VALID,74.1301,VALID,321.356,VALID,23.3461,VALID,95,VALID,1.9793,
2016-02-03, 09:58:04,VALID,918.77,VALID,0,VALID,73.6193,VALID,304.811,VALID,23.3265,VALID,118,VALID,0.726953,
2016-02-03, 09:59:04,VALID,918.786,VALID,0,VALID,72.2624,VALID,265.809,VALID,23.307,VALID,130,VALID,0.0113281,
2016-02-03, 10:00:04,VALID,918.76,VALID,0,VALID,74.3207,VALID,234.651,VALID,23.3461,VALID,129,VALID,0,
2016-02-03, 10:01:04,VALID,918.765,VALID,0,VALID,74.2444,VALID,236.371,VALID,23.4632,VALID,111,VALID,0,
2016-02-03, 10:02:04,VALID,918.756,VALID,0,VALID,73.8404,VALID,245.181,VALID,23.5022,VALID,79,VALID,0.612891,
2016-02-03, 10:03:04,VALID,918.755,VALID,0,VALID,75.3956,VALID,275.479,VALID,23.5217,VALID,39,VALID,1.10508,
2016-02-03, 10:04:04,VALID,918.71,VALID,0,VALID,73.1086,VALID,327.481,VALID,23.5803,VALID,63,VALID,2.26133,
2016-02-03, 10:05:04,VALID,918.756,VALID,0,VALID,71.9727,VALID,398.177,VALID,23.5217,VALID,119,VALID,1.27617,
2016-02-03, 10:06:04,VALID,918.78,VALID,0,VALID,72.3081,VALID,783.998,VALID,23.5608,VALID,82,VALID,1.82031,
2016-02-03, 10:07:04,VALID,918.696,VALID,0,VALID,75.4108,VALID,442.765,VALID,23.637,VALID,49,VALID,1.88008,
2016-02-03, 10:08:04,VALID,918.745,VALID,0,VALID,73.5736,VALID,278.273,VALID,23.7755,VALID,49,VALID,1.48594,
2016-02-03, 10:09:04,VALID,918.706,VALID,0,VALID,72.674,VALID,285.041,VALID,23.8536,VALID,50,VALID,2.38242,
2016-02-03, 10:10:04,VALID,918.691,VALID,0,VALID,74.1453,VALID,379.267,VALID,23.795,VALID,71,VALID,1.51875,
2016-02-03, 10:11:04,VALID,918.737,VALID,0,VALID,72.5825,VALID,340.481,VALID,23.7364,VALID,98,VALID,2.29688,
2016-02-03, 10:12:04,VALID,918.682,VALID,0,VALID,72.6359,VALID,355.523,VALID,23.6566,VALID,86,VALID,1.50781,
2016-02-03, 10:13:04,VALID,918.646,VALID,0,VALID,73.0933,VALID,407.095,VALID,23.6584,VALID,69,VALID,1.68477,
2016-02-03, 10:14:04,VALID,918.678,VALID,0,VALID,73.3906,VALID,452.005,VALID,23.6175,VALID,43,VALID,0.662109,
2016-02-03, 10:15:04,VALID,918.625,VALID,0,VALID,71.7745,VALID,478.221,VALID,23.7151,VALID,50,VALID,2.0875,
2016-02-03, 10:16:04,VALID,918.647,VALID,0,VALID,74.6104,VALID,268.066,VALID,23.8731,VALID,68,VALID,1.15039,
2016-02-03, 10:17:04,VALID,918.662,VALID,0,VALID,72.3005,VALID,468.658,VALID,23.8749,VALID,127,VALID,0.206641,
2016-02-03, 10:18:04,VALID,918.637,VALID,0,VALID,71.1722,VALID,497.13,VALID,24.0097,VALID,102,VALID,0.616406,
2016-02-03, 10:19:04,VALID,918.653,VALID,0,VALID,72.4072,VALID,334.035,VALID,24.0506,VALID,88,VALID,0,
2016-02-03, 10:20:04,VALID,918.64,VALID,0,VALID,72.9713,VALID,353.052,VALID,24.1464,VALID,71,VALID,0.0609375,
2016-02-03, 10:21:04,VALID,918.64,VALID,0,VALID,71.3171,VALID,590.282,VALID,24.2245,VALID,50,VALID,0.842969,
2016-02-03, 10:22:04,VALID,918.602,VALID,0,VALID,73.0323,VALID,506.478,VALID,24.4002,VALID,18,VALID,0.637891,
2016-02-03, 10:23:04,VALID,918.559,VALID,0,VALID,72.209,VALID,861.356,VALID,24.6735,VALID,34,VALID,1.6582,
2016-02-03, 10:24:04,VALID,918.617,VALID,0,VALID,72.0718,VALID,404.086,VALID,24.9274,VALID,67,VALID,0.2625,
2016-02-03, 10:25:04,VALID,918.573,VALID,0,VALID,67.208,VALID,493.477,VALID,25.0055,VALID,29,VALID,1.03945,
2016-02-03, 10:26:04,VALID,918.592,VALID,0,VALID,68.0771,VALID,301.265,VALID,25.064,VALID,65,VALID,1.53398,
2016-02-03, 10:27:04,VALID,918.56,VALID,0,VALID,68.5345,VALID,274.834,VALID,24.9078,VALID,40,VALID,2.85781,
2016-02-03, 10:28:04,VALID,918.578,VALID,0,VALID,68.6641,VALID,268.173,VALID,24.7126,VALID,49,VALID,2.30977,
2016-02-03, 10:29:04,VALID,918.556,VALID,0,VALID,70.387,VALID,273.653,VALID,24.4764,VALID,37,VALID,2.82734,
2016-02-03, 10:30:04,VALID,918.576,VALID,0,VALID,71.9879,VALID,271.074,VALID,24.2812,VALID,96,VALID,1.34609,
2016-02-03, 10:31:04,VALID,918.555,VALID,0,VALID,70.6919,VALID,270.644,VALID,24.1269,VALID,98,VALID,0.971484,
2016-02-03, 10:32:04,VALID,918.518,VALID,0,VALID,71.8126,VALID,283.537,VALID,24.0274,VALID,35,VALID,1.89961,
2016-02-03, 10:33:04,VALID,918.498,VALID,0,VALID,73.4669,VALID,342.093,VALID,24.0683,VALID,46,VALID,0.985547,
2016-02-03, 10:34:04,VALID,918.506,VALID,0,VALID,74.4198,VALID,344.027,VALID,24.2245,VALID,49,VALID,0.0105469,
2016-02-03, 10:35:04,VALID,918.506,VALID,0,VALID,71.3094,VALID,347.25,VALID,24.3398,VALID,59,VALID,0.201562,
2016-02-03, 10:36:04,VALID,918.475,VALID,0,VALID,69.2282,VALID,353.804,VALID,24.3221,VALID,51,VALID,0.359766,
2016-02-03, 10:37:04,VALID,918.462,VALID,0,VALID,69.5713,VALID,338.547,VALID,24.283,VALID,53,VALID,0.765234,
2016-02-03, 10:38:04,VALID,918.483,VALID,0,VALID,69.2054,VALID,401.508,VALID,24.3026,VALID,58,VALID,0.2375,
2016-02-03, 10:39:04,VALID,918.443,VALID,0,VALID,71.8964,VALID,338.869,VALID,24.3221,VALID,21,VALID,0.772656,
2016-02-03, 10:40:04,VALID,918.476,VALID,0,VALID,68.7251,VALID,297.505,VALID,24.3416,VALID,60,VALID,1.29727,
2016-02-03, 10:41:04,VALID,918.451,VALID,0,VALID,70.0668,VALID,276.876,VALID,24.3221,VALID,30,VALID,2.57227,
2016-02-03, 10:42:04,VALID,918.433,VALID,0,VALID,70.2803,VALID,272.148,VALID,24.2812,VALID,98,VALID,1.37109,
2016-02-03, 10:43:04,VALID,918.484,VALID,0,VALID,71.7211,VALID,277.843,VALID,24.3026,VALID,122,VALID,0,
2016-02-03, 10:44:04,VALID,918.455,VALID,0,VALID,72.6816,VALID,289.876,VALID,24.3806,VALID,83,VALID,0,
2016-02-03, 10:45:04,VALID,918.469,VALID,0,VALID,70.3108,VALID,381.201,VALID,24.4178,VALID,54,VALID,0,
2016-02-03, 10:46:04,VALID,918.475,VALID,0,VALID,69.3731,VALID,458.022,VALID,24.4569,VALID,64,VALID,0.0121094,
2016-02-03, 10:47:04,VALID,918.445,VALID,0,VALID,68.504,VALID,746.394,VALID,24.535,VALID,26,VALID,0.175781,
2016-02-03, 10:48:04,VALID,918.432,VALID,0,VALID,71.5991,VALID,355.2,VALID,24.7107,VALID,30,VALID,0,
2016-02-03, 10:49:04,VALID,918.402,VALID,0,VALID,69.4874,VALID,545.909,VALID,24.8474,VALID,19,VALID,0.353906,
2016-02-03, 10:50:04,VALID,918.4,VALID,0,VALID,67.7722,VALID,388.937,VALID,25.0836,VALID,15,VALID,0,
2016-02-03, 10:51:04,VALID,918.393,VALID,0,VALID,67.6349,VALID,382.705,VALID,25.2379,VALID,25,VALID,0,
2016-02-03, 10:52:04,VALID,918.389,VALID,0,VALID,68.1,VALID,381.524,VALID,25.2203,VALID,25,VALID,0.809375,
2016-02-03, 10:53:04,VALID,918.409,VALID,0,VALID,65.9349,VALID,341.663,VALID,25.1988,VALID,18,VALID,0,
2016-02-03, 10:54:04,VALID,918.406,VALID,0,VALID,64.7457,VALID,284.182,VALID,25.1793,VALID,349,VALID,0,
2016-02-03, 10:55:04,INVALID - VALUE NOT AVAILABLE,0,VALID,0,VALID,65.5614,VALID,257.214,VALID,25.1812,INVALID,360,INVALID,0,
2016-02-03, 10:56:04,VALID,918.399,VALID,0,VALID,67.269,VALID,728.773,VALID,25.2183,VALID,106,VALID,0,
2016-02-03, 10:57:04,VALID,918.383,VALID,0,VALID,67.6426,VALID,266.454,VALID,25.2007,VALID,153,VALID,0,
2016-02-03, 10:58:04,VALID,918.351,VALID,0,VALID,66.4381,VALID,242.71,VALID,25.1812,VALID,140,VALID,0.309766,
2016-02-03, 10:59:04,VALID,918.347,VALID,0,VALID,66.9641,VALID,223.155,VALID,24.945,VALID,138,VALID,0.00195313,
2016-02-03, 11:00:04,VALID,918.357,VALID,0,VALID,68.6107,VALID,216.064,VALID,24.7888,VALID,125,VALID,0.309766,
2016-02-03, 11:01:04,VALID,918.409,VALID,0,VALID,69.556,VALID,213.163,VALID,24.5545,VALID,116,VALID,1.0293,
2016-02-03, 11:02:04,VALID,918.386,VALID,0,VALID,70.1659,VALID,207.254,VALID,24.4764,VALID,121,VALID,0,
2016-02-03, 11:03:04,VALID,918.362,VALID,0,VALID,70.9054,VALID,221.114,VALID,24.4392,VALID,148,VALID,0,
2016-02-03, 11:04:04,VALID,918.377,VALID,0,VALID,70.1354,VALID,236.693,VALID,24.4374,VALID,127,VALID,0.452734,
2016-02-03, 11:05:04,VALID,918.357,VALID,0,VALID,67.7569,VALID,256.462,VALID,24.3398,VALID,118,VALID,0.0289063,
2016-02-03, 11:06:04,VALID,918.342,VALID,0,VALID,69.7238,VALID,308.893,VALID,24.3788,VALID,119,VALID,0,
2016-02-03, 11:07:04,VALID,918.309,VALID,0,VALID,71.9041,VALID,366.804,VALID,24.5564,VALID,89,VALID,0,
2016-02-03, 11:08:04,VALID,918.312,VALID,0,VALID,70.7682,VALID,334.894,VALID,24.574,VALID,125,VALID,0.0261719,
2016-02-03, 11:09:04,VALID,918.284,VALID,0,VALID,68.748,VALID,313.836,VALID,24.6149,VALID,119,VALID,1.02969,
2016-02-03, 11:10:04,VALID,918.225,VALID,0,VALID,67.6349,VALID,300.835,VALID,24.574,VALID,51,VALID,2.79883,
2016-02-03, 11:11:04,VALID,918.307,VALID,0,VALID,69.9143,VALID,307.067,VALID,24.5173,VALID,73,VALID,1.73438,
2016-02-03, 11:12:04,VALID,918.248,VALID,0,VALID,69.6552,VALID,331.241,VALID,24.4764,VALID,66,VALID,1.99805,
2016-02-03, 11:13:04,VALID,918.236,VALID,0,VALID,69.1444,VALID,376.689,VALID,24.4178,VALID,72,VALID,1.29766,
2016-02-03, 11:14:04,VALID,918.232,VALID,0,VALID,69.7009,VALID,834.066,VALID,24.4569,VALID,64,VALID,1.65508,
2016-02-03, 11:15:04,VALID,918.204,VALID,0,VALID,71.1265,VALID,1045.08,VALID,24.5954,VALID,88,VALID,0,
2016-02-03, 11:16:04,VALID,918.217,VALID,0,VALID,71.378,VALID,979.219,VALID,24.8669,VALID,96,VALID,0.378906,
2016-02-03, 11:17:04,VALID,918.211,VALID,0,VALID,70.5014,VALID,1020.48,VALID,25.1988,VALID,51,VALID,0.0890625,
2016-02-03, 11:18:04,VALID,918.165,VALID,0,VALID,68.8394,VALID,388.615,VALID,25.5308,VALID,52,VALID,0.0417969,
2016-02-03, 11:19:04,VALID,918.165,VALID,0,VALID,66.6515,VALID,333.605,VALID,25.7651,VALID,45,VALID,0.34375,
2016-02-03, 11:20:04,VALID,918.142,VALID,0,VALID,65.2336,VALID,276.661,VALID,25.8042,VALID,54,VALID,3.14258,
2016-02-03, 11:21:04,VALID,918.109,VALID,0,VALID,63.6174,VALID,272.901,VALID,25.5308,VALID,54,VALID,3.69453,
2016-02-03, 11:22:04,VALID,918.144,VALID,0,VALID,67.0632,VALID,308.249,VALID,25.1988,VALID,56,VALID,2.37656,
2016-02-03, 11:23:04,VALID,918.134,VALID,0,VALID,66.6439,VALID,392.16,VALID,24.9645,VALID,58,VALID,3.32148,
2016-02-03, 11:24:04,VALID,918.104,VALID,0,VALID,67.0708,VALID,377.871,VALID,24.8278,VALID,61,VALID,1.85664,
2016-02-03, 11:25:04,VALID,918.064,VALID,0,VALID,67.4749,VALID,998.988,VALID,24.7302,VALID,45,VALID,1.94727,
2016-02-03, 11:26:04,VALID,918.057,VALID,0,VALID,68.1762,VALID,416.764,VALID,24.8474,VALID,58,VALID,1.7,
2016-02-03, 11:27:04,VALID,918.05,VALID,0,VALID,67.4444,VALID,397.747,VALID,24.945,VALID,67,VALID,1.21875,
2016-02-03, 11:28:04,VALID,918.046,VALID,0,VALID,66.1636,VALID,384.962,VALID,25.0426,VALID,122,VALID,0.635156,
2016-02-03, 11:29:04,VALID,918.058,VALID,0,VALID,66.3847,VALID,374.755,VALID,25.1402,VALID,106,VALID,0.89375,